sat.trackr.live / text

‹ back to catalog

KUIPER-00033

NORAD 63746 · 2025-088Y

PAYLOAD ACTIVE UNKNOWN

§ Identity

Operator
Country
US
Launch date
2025-04-28
Launch site
AFETR
Launch vehicle
Mass (kg)
RCS (m²)

External: N2YO · Heavens-Above · Gunter

§ Orbital elements

Epoch: 2026-09-21T11:57:37.350144Z

Period
97.30 min
Inclination
51.9016°
Eccentricity
0.0001045
Mean motion
14.79929638 rev/d
Perigee alt
628.8 km
Apogee alt
630.3 km
Semi-major
7,007.7 km
B*
1.2804e-4
RAAN
339.7232°
Arg perigee
101.3318°
Mean anomaly
258.7762°
Rev number
7,661

§ Raw data

KUIPER-000331 63746U 25088Y   26264.49834896  .00000755  00000+0  12804-3 0  99942 63746  51.9016 339.7232 0001045 101.3318 258.7762 14.79929638 76611

JSON: /api/v1/satellites/63746 · /tle

For live sub-satellite position, see the globe view (requires WebGL).

§ Visibility from observer

Set your observer location to see the next 7 days of passes ≥ 10°. The values pass through the URL so the page stays shareable.

No JS? Fill the form by hand. The geolocation button needs JavaScript.